This is the latest recevied weather packets stored in our database for station/object IA5FYI-13. If no packets are shown the sender has not sent any weather packets the latest 10 day(s).
| Time | Temp. | Humidity | Pressure | Rain* | Wind** | Luminosity | Snow |
|---|---|---|---|---|---|---|---|
| 1777671911 | 17.22° C | 32% | 1023 hPa | 0 mm | - | - | - |
| 1777671612 | 17.22° C | 34% | 1023 hPa | 0 mm | - | - | - |
| 1777671309 | 17.22° C | 33% | 1023 hPa | 0 mm | - | - | - |
| 1777671022 | 17.22° C | 34% | 1022.7 hPa | 0 mm | - | - | - |
| 1777670412 | 17.78° C | 31% | 1023 hPa | 0 mm | - | - | - |
| 1777670113 | 17.78° C | 30% | 1023 hPa | 0 mm | - | - | - |
| 1777669811 | 17.78° C | 28% | 1023 hPa | 0 mm | - | - | - |
| 1777669508 | 17.78° C | 30% | 1022.7 hPa | 0 mm | - | - | - |
| 1777669232 | 17.78° C | 31% | 1023 hPa | 0 mm | - | - | - |
| 1777668909 | 17.78° C | 32% | 1022.7 hPa | 0 mm | - | - | - |
| 1777668611 | 17.78° C | 33% | 1022.4 hPa | 0 mm | - | - | - |
| 1777668312 | 17.78° C | 35% | 1022.4 hPa | 0 mm | - | - | - |
| 1777668013 | 17.78° C | 35% | 1022.4 hPa | 0 mm | - | - | - |
| 1777667709 | 17.78° C | 35% | 1022.7 hPa | 0 mm | - | - | - |
| 1777667421 | 17.78° C | 36% | 1022.7 hPa | 0 mm | - | - | - |
| 1777667109 | 17.78° C | 36% | 1022.4 hPa | 0 mm | - | - | - |
| 1777666813 | 17.78° C | 38% | 1022.4 hPa | 0 mm | - | - | - |
| 1777666511 | 17.78° C | 39% | 1022.4 hPa | 0 mm | - | - | - |
| 1777666213 | 17.78° C | 38% | 1022.4 hPa | 0 mm | - | - | - |
| 1777665909 | 17.78° C | 38% | 1022 hPa | 0 mm | - | - | - |
| 1777665631 | 17.78° C | 37% | 1022 hPa | 0 mm | - | - | - |
| 1777665309 | 17.78° C | 36% | 1022.4 hPa | 0 mm | - | - | - |
| 1777665012 | 17.78° C | 36% | 1022 hPa | 0 mm | - | - | - |
| 1777664712 | 17.78° C | 40% | 1022 hPa | 0 mm | - | - | - |
| 1777664412 | 17.78° C | 39% | 1021.7 hPa | 0 mm | - | - | - |
* Rain latest hour (hover to see other rain measurements)
** Current wind speed in m/s (hover to see current wind gust speed)